Simultaneous Nadir Overpasses (SNOs) Predictions

Prediction of SNOs between NOAA-19 and TERRA Satellite Orbit:

Table of predicted SNOs for the next 14.0 days since TLE Epoch: 1/15/2017
Index Date (NOAA-19) Time (NOAA-19) Lat,Lon (NOAA-19) SZA (NOAA-19 ) Date (TERRA) Time (TERRA) Lat,Lon (TERRA) SZA (TERRA ) Distance(km) Time Diff (sec)
1 01/16/2017 23:29:50 -74.86, 16.85 84.39 01/16/2017 23:30:51 -74.87, 16.89 84.36 2.22 61
2 01/17/2017 00:20:45 74.79,-175.70 95.55 01/17/2017 00:20:18 74.79,-175.67 95.55 0.95 27
3 01/19/2017 05:03:40 74.84, 113.49 95.15 01/19/2017 05:04:33 74.85, 113.41 95.16 2.48 53
4 01/19/2017 05:54:44 -74.78, -79.10 84.92 01/19/2017 05:54:02 -74.78, -79.13 84.93 0.90 42
5 01/21/2017 10:37:39 -74.84,-149.94 85.35 01/21/2017 10:38:17 -74.84,-150.06 85.35 3.44 38
6 01/21/2017 11:28:35 74.81, 17.41 94.62 01/21/2017 11:27:43 74.81, 17.51 94.61 2.82 52
7 01/23/2017 16:11:30 74.86, -53.41 94.16 01/23/2017 16:11:58 74.86, -53.43 94.15 0.97 28
8 01/23/2017 17:02:33 -74.77, 114.09 85.94 01/23/2017 17:01:27 -74.79, 114.03 85.93 2.54 66
9 01/25/2017 21:45:28 -74.84, 43.22 86.42 01/25/2017 21:45:42 -74.84, 43.09 86.42 3.83 14
10 01/25/2017 22:36:22 74.70,-149.09 93.44 01/25/2017 22:35:09 74.75,-149.49 93.48 13.17 73
11 01/28/2017 03:19:18 74.85, 139.80 93.02 01/28/2017 03:19:22 74.85, 139.68 93.01 3.30 4
